[Iaude] MPEC R59: 2023 RN1 [a=2.14,e=0.51,i=1.4,H=25.1]

mpec at marsden.cfa.harvard.edu mpec at marsden.cfa.harvard.edu
Fri Sep 8 17:04:18 EDT 2023


M.P.E.C. 2023-R59                             Issued 2023 September 8, 21:02 UT

     The Minor Planet Electronic Circulars contain information on unusual
         minor planets, routine data on comets and natural satellites,
         and occasional editorial announcements.  They are published
    on behalf of Division F of the International Astronomical Union by the
          Minor Planet Center, Smithsonian Astrophysical Observatory,
                          Cambridge, MA 02138, U.S.A.
			  
             Prepared using the Tamkin Foundation Computer Network

                              MPC at CFA.HARVARD.EDU
            URL https://www.minorplanetcenter.net/    ISSN 1523-6714

                                    2023 RN1                                    


Observations:
     K23R01N KC2023 09 07.26977200 29 09.18 +12 53 59.0          19.1 GXER059858
     K23R01N KC2023 09 07.28482000 29 20.94 +12 55 33.7          19.6 GXER059858
     K23R01N KC2023 09 07.29996500 29 32.75 +12 57 09.6          18.5 GXER059858
     K23R01N* C2023 09 07.40998000 31 07.707+13 09 04.37         19.80wXER059F52
     K23R01N  C2023 09 07.43192000 31 24.438+13 11 19.74         20.13wXER059F52
     K23R01N  C2023 09 07.44300100 31 32.847+13 12 27.62         19.76wXER059F52
     K23R01N  C2023 09 07.52066300 32 31.095+13 20 14.52         19.57GVER059F51
     K23R01N  C2023 09 07.52147500 32 31.707+13 20 19.37         19.60GVER059F51
     K23R01N KC2023 09 07.88791000 37 38.24 +13 54 20.3          19.3 GVER059L01
     K23R01N KC2023 09 07.88939500 37 39.35 +13 54 29.6          19.3 GVER059L01
     K23R01N KC2023 09 07.89087900 37 40.48 +13 54 37.8          19.2 GVER059L01
     K23R01N KC2023 09 07.89236400 37 41.60 +13 54 45.7          19.2 GVER059L01
     K23R01N KC2023 09 07.89384700 37 42.71 +13 54 54.5          19.3 GVER059L01
     K23R01N KC2023 09 07.93523 00 38 12.72 +13 58 44.2          19.5 GXER059G02
     K23R01N KC2023 09 07.93836 00 38 15.05 +13 59 01.9          19.7 GXER059G02
     K23R01N 1C2023 09 07.94302 00 38 19.39 +13 59 22.3          19.9 VXER059033
     K23R01N 1C2023 09 07.94331 00 38 19.61 +13 59 24.2          20.1 VXER059033
     K23R01N 1C2023 09 07.94360 00 38 19.82 +13 59 25.6          20.1 VXER059033
     K23R01N KC2023 09 07.94517 00 38 20.06 +13 59 41.1          19.4 GXER059G02
     K23R01N KB2023 09 07.98572800 38 53.30 +14 03 40.1                VER059I93
     K23R01N KB2023 09 07.99162300 38 57.64 +14 04 13.5          20.3 GVER059I93
     K23R01N KB2023 09 07.99492900 39 00.07 +14 04 32.3          20.2 GVER059I93
     K23R01N KC2023 09 08.03397900 39 26.42 +14 08 09.6          19.4 GXER059595
     K23R01N KB2023 09 08.03401400 39 26.964+14 07 58.22         19.3 GXER059K74
     K23R01N KB2023 09 08.04036 00 39 29.14 +14 08 43.4          19.4 GXER059M45
     K23R01N KB2023 09 08.04387 00 39 31.71 +14 09 02.4          19.5 GXER059M45
     K23R01N KB2023 09 08.04649100 39 36.108+14 09 07.70         19.1 GXER059K74
     K23R01N KB2023 09 08.04722 00 39 34.15 +14 09 20.0          19.3 GXER059M45
     K23R01N KC2023 09 08.05012700 39 38.19 +14 09 38.5          19.6 GXER059595
     K23R01N KB2023 09 08.05883100 39 45.151+14 10 16.03         19.6 GXER059K74
     K23R01N KC2023 09 08.06627700 39 49.96 +14 11 06.3          19.3 GXER059595
     K23R01N KB2023 09 08.10237 00 40 17.33 +14 14 30.6          19.8 VZER059C95
     K23R01N KB2023 09 08.11760 00 40 28.37 +14 15 53.4          19.9 VZER059C95
     K23R01N KB2023 09 08.13287 00 40 39.48 +14 17 15.3          19.6 VZER059C95
     K23R01N 1C2023 09 08.13564 00 40 41.39 +14 17 09.3          20.5 VXER059033
     K23R01N 1C2023 09 08.13598 00 40 41.66 +14 17 11.3          20.5 VXER059033
     K23R01N 1C2023 09 08.13632 00 40 41.91 +14 17 13.1          20.5 VXER059033
     K23R01N  C2023 09 08.26240600 42 32.451+14 29 18.69         19.8 GVER059654
     K23R01N  C2023 09 08.26641500 42 35.347+14 29 41.00         19.8 GVER059654
     K23R01N KC2023 09 08.31256700 43 06.27 +14 33 55.9          19.8 GXER059858
     K23R01N KC2023 09 08.31803300 43 10.10 +14 34 25.4          19.8 GXER059858
     K23R01N KC2023 09 08.32324000 43 13.76 +14 34 53.5          19.8 GXER059858
     K23R01N 1C2023 09 08.33114600 43 21.414+14 34 52.53               LER059658
     K23R01N 1C2023 09 08.33245400 43 22.343+14 34 59.74               LER059658
     K23R01N 1C2023 09 08.33376200 43 23.276+14 35 07.08               LER059658
     K23R01N 1C2023 09 08.33505800 43 24.190+14 35 14.32               LER059658
     K23R01N 1C2023 09 08.33636600 43 25.109+14 35 21.41               LER059658
     K23R01N  C2023 09 08.42954700 44 29.740+14 44 17.77         19.8 GVER059654
     K23R01N  C2023 09 08.43355600 44 32.515+14 44 38.62         19.8 GVER059654
     K23R01N 1C2023 09 08.85799800 49 57.490+15 19 39.00               VER059246
     K23R01N 1C2023 09 08.85833900 49 57.540+15 19 40.50         19.7 GVER059246

Observer details:
033 Karl Schwarzschild Observatory, Tautenburg.  Observers S. Melnikov, C.
    Hoegner, F. Ludwig, M. Hartmann, B. Stecklum.  Measurer B. Stecklum.
    1.34-m f/3 Schmidt + CCD.
246 Klet Observatory-KLENOT.  Observers M. Tichy, J. Ticha, M. Janda, M.
    Honkova.  Measurer M. Tichy.  1.06-m f/2.7 Reflector + 2048x2048 CCD.
595 Farra d'Isonzo.  Observer E. Pettarin.  0.61-m f/4.5 reflector + CCD.
654 Table Mountain Observatory, Wrightwood-PHMC.  Observers N. Evans, P. Choi,
    N. Saini, C. Zhai, R. Trahan, M. Shao.  1.0-m Reflector + CCD.
658 National Research Council of Canada.  Observers D. D. Balam, C. E. Spratt.
    Measurers D. D. Balam, D. W. E. Green.  1.82-m Reflector + CCD.
858 Tebbutt Observatory, Edgewood.  Observer F. B. Zoltowski.  0.16-m f/7
    Refractor + CCD, 0.51-m f/8.1 Schmidt-Cassegrain + CCD.
C95 SATINO Remote Observatory, Haute Provence.  Observer D. Husar.  0.30-m
    f/5.8 reflector + CMO.
F51 Pan-STARRS 1, Haleakala.  Observers J. Bulger, K. Chambers, T. Lowe, P.
    Minguez, A. Schultz, I. Smith.  Measurers S. Chastel, J. Fairlamb, M.
    Huber, Y. Ramanjooloo, R. Wainscoat, R. Weryk.  1.8-m Ritchey-Chretien +
    CCD.
F52 Pan-STARRS 2, Haleakala.  Observers J. Bulger, T. Lowe, P. Minguez, A.
    Schultz, I. Smith.  Measurers K. Chambers, T. de Boer, J. Bulger, J.
    Fairlamb, H. Gao, M. Huber, C.-C. Lin, T. Lowe, E. Magnier, P. Minguez, Y.
    Ramanjooloo, A. Schultz, I. Smith, R. Wainscoat, R. Weryk.  1.8-m Ritchey-
    Chretien + CCD.
G02 KYSUCE Observatory, Kysucke Nove Mesto.  Observer M. Urbanik.  0.40-m
    f/6.8 Corrected Dall-Kirkham + CCD.
I93 St Pardon de Conques.  Observer F. Losse.  0.40-m f/3.7 reflector + CMO.
K74 Muensterschwarzach Observatory, Schwarzach.  Observer C. Gerhard.  0.30-m
    f/3.75 reflector + CMO.
L01 Visnjan Observatory, Tican.  Observers K. Korlevic, I. Lyon.  Measurer K.
    Korlevic.  1.0-m f/2.9 reflector + CCD.
M45 Starhopper Observatory, Sfantu Gheorghe.  Observer F. Ursache.  0.41-m
    f/7.5 reflector + CMO.

Orbital elements:
2023 RN1                                                 Earth MOID = 0.0356 AU
Epoch 2023 Sept. 13.0 TT = JDT 2460200.5                Veres                   
M   3.37089              (2000.0)            P               Q                  
n   0.31384447     Peri.    9.85271     +0.93665517     +0.35003351             
a   2.1445017      Node   329.64876     -0.32299727     +0.84954021             
e   0.5127876      Incl.    1.40556     -0.13546160     +0.39466184             
P   3.14           H   25.19          G   0.15           U   8                  
Residuals in seconds of arc
230907 858  1.3-  1.6-    230907 033  0.3+  0.2+    230908 033  0.2+  0.2+
230907 858  1.4-  1.3-    230907 G02  1.8-  0.6+    230908 033  0.5+  0.4+
230907 858  1.1-  0.1+    230907 I93  0.4+  0.2+    230908 033  0.5+  0.3+
230907 F52  0.1-  0.3-    230907 I93  0.3+  0.1+    230908 654  0.0   0.2+
230907 F52  0.2+  0.1-    230907 I93  0.2+  0.2+    230908 654  0.0   0.2+
230907 F52  0.4+  0.0     230908 595  0.3+  0.8+    230908 858  0.2-  0.3+
230907 F51  0.2+  0.1-    230908 K74  0.3+  0.1+    230908 858  0.3-  0.2+
230907 F51  0.2+  0.1-    230908 M45  0.3+  0.5+    230908 858  0.1-  0.2+
230907 L01  0.0   0.6+    230908 M45  0.4+  0.2+    230908 658  1.1+  1.1-
230907 L01  0.2-  1.2+    230908 K74  0.3+  0.4+    230908 658  0.9+  1.0-
230907 L01  0.2-  0.8+    230908 M45  0.2+  0.5-    230908 658  0.9+  0.7-
230907 L01  0.3-  0.1+    230908 595  0.3+  0.4+    230908 658  0.7+  0.5-
230907 L01  0.5-  0.2+    230908 K74  0.4+  0.6+    230908 658  0.4+  0.5-
230907 G02  0.9-  0.4+    230908 595  0.4+  0.5-    230908 654  0.3-  0.1+
230907 G02  0.9-  0.2+    230908 C95  0.4+  0.1+    230908 654  0.3-  0.2+
230907 033  0.3+  0.3+    230908 C95  0.2+  0.5+    230908 246  1.9+  1.3-
230907 033  0.4+  0.5+    230908 C95  0.2+  0.2+    230908 246  0.8-  1.6-

Ephemeris:
2023 RN1                 a,e,i = 2.14, 0.51, 1                   q = 1.0448
Date    TT    R. A. (2000) Decl.     Delta      r    Elong.  Phase     V
2023 08 09    18 19 21.5 -28 15 25   0.09195 1.0842   138.2    38.6    21.7
...
2023 08 24    20 09 01.3 -20 32 23   0.04542 1.0507   149.7    29.0    19.9
...
2023 09 01    22 37 13.8 -02 14 43   0.03573 1.0449   173.7     6.1    18.5
...
2023 09 07    00 25 12.2 +12 27 03   0.04340 1.0464   151.7    27.1    19.7
2023 09 08    00 38 59.4 +14 06 36   0.04565 1.0471   149.0    29.7    19.9
2023 09 09    00 51 31.8 +15 33 07   0.04809 1.0480   146.7    31.9    20.1
...
2023 09 15    01 45 11.7 +20 52 58   0.06542 1.0560   138.8    38.9    20.9
...
2023 09 23    02 20 37.8 +23 28 25   0.09228 1.0740   138.0    38.7    21.7
...
2023 10 08    02 41 12.2 +24 04 36   0.1485  1.1279   147.9    28.1    22.6

M. P. C. Staff               (C) Copyright 2023 MPC           M.P.E.C. 2023-R59





More information about the Iaude mailing list